Weather History for KTMK - April, 2014

Change the Weather History Date:

Thursday, April 3, 2014

  Actual Average (KMMV) Record (KMMV)
Temperature  
Mean Temperature 45 °F 49 °F  
Max Temperature 51 °F 59 °F 75 °F (1951)
Min Temperature 39 °F 39 °F 28 °F (1964)
Degree Days  
Heating Degree Days 20 16  
Month to date heating degree days 50  
Since 1 July heating degree days 4001  
Cooling Degree Days 0 0  
Month to date cooling degree days 0  
Year to date cooling degree days 0  
Moisture  
Dew Point 44 °F    
Average Humidity 90    
Maximum Humidity 100    
Minimum Humidity 67    
Precipitation  
Precipitation 0.26 in 0.12 in 0.71 in (1954)
Month to date precipitation 0.39  
Year to date precipitation 14.96  
Sea Level Pressure  
Sea Level Pressure 29.99 in    
Wind  
Wind Speed 3 mph (SSE)    
Max Wind Speed 13 mph    
Max Gust Speed 22 mph    
Visibility 9 miles    
Events Rain    
T = Trace of Precipitation, MM = Missing Value Source: NWS Daily Summary

Daily Weather History Graph

Daily Weather History Graph

Search for Another Location

Airport or City:

Trip Planner

Search our weather history database for the weather conditions in past years. The results will help you decide how hot, cold, wet, or windy it might be!

Date:

Astronomy

Apr. 03, 2014 Rise Set
Actual Time 7:51 AM MDT 8:46 PM MDT
Civil Twilight 7:21 AM MDT 9:16 PM MDT
Nautical Twilight 6:45 AM MDT 9:52 PM MDT
Astronomical Twilight 6:08 AM MDT 10:29 PM MDT
Moon 10:15 AM MDT 12:22 AM MDT
Length of Visible Light 13h 54m
Length of Day
12h 54m
Waxing Crescent, 18% of the Moon is Illuminated
Apr 3
Waxing Crescent
Apr 7
First Quarter
Apr 15
Full
Apr 22
Last Quarter
Apr 29
New

Hourly Weather History & Observations

Time (MDT) Temp. Windchill Dew Point Humidity Pressure Visibility Wind Dir Wind Speed Gust Speed Precip Events Conditions
12:15 AM 41.0 °F - 41.0 °F 100% 30.05 in 10.0 mi Calm Calm - N/A   Clear
12:35 AM 42.8 °F 41.1 °F 42.8 °F 100% 30.05 in 10.0 mi SE 3.5 mph - N/A   Clear
12:55 AM 41.0 °F - 41.0 °F 100% 30.05 in 10.0 mi Calm Calm - N/A   Clear
1:15 AM 41.0 °F 39.0 °F 41.0 °F 100% 30.05 in 10.0 mi SE 3.5 mph - N/A   Clear
1:35 AM 41.0 °F 38.0 °F 41.0 °F 100% 30.05 in 10.0 mi SE 4.6 mph - N/A   Clear
1:55 AM 39.2 °F - 39.2 °F 100% 30.04 in 10.0 mi Calm Calm - N/A   Clear
2:15 AM 41.0 °F - 41.0 °F 100% 30.04 in 10.0 mi Calm Calm - N/A   Scattered Clouds
2:35 AM 41.0 °F - 41.0 °F 100% 30.04 in 10.0 mi Calm Calm - N/A   Mostly Cloudy
2:55 AM 41.0 °F - 41.0 °F 100% 30.04 in 10.0 mi Calm Calm - N/A   Overcast
3:15 AM 41.0 °F - 41.0 °F 100% 30.03 in 10.0 mi Calm Calm - N/A   Overcast
3:35 AM 41.0 °F - 41.0 °F 100% 30.03 in 10.0 mi Calm Calm - N/A   Overcast
3:55 AM 42.8 °F - 42.8 °F 100% 30.02 in 10.0 mi Calm Calm - N/A   Overcast
4:15 AM 42.8 °F - 42.8 °F 100% 30.01 in 10.0 mi Calm Calm - N/A   Overcast
4:35 AM 42.8 °F - 42.8 °F 100% 30.01 in 10.0 mi Calm Calm - N/A   Overcast
4:55 AM 42.8 °F - 42.8 °F 100% 30.01 in 10.0 mi Calm Calm - N/A   Overcast
5:15 AM 42.8 °F - 42.8 °F 100% 30.01 in 10.0 mi Calm Calm - N/A   Overcast
5:35 AM 42.8 °F - 42.8 °F 100% 30.00 in 10.0 mi Calm Calm - N/A   Overcast
5:55 AM 42.8 °F - 42.8 °F 100% 30.00 in 10.0 mi Calm Calm - N/A   Overcast
6:15 AM 42.8 °F - 42.8 °F 100% 29.99 in 10.0 mi Calm Calm - N/A   Overcast
6:35 AM 42.8 °F 41.1 °F 42.8 °F 100% 29.99 in 10.0 mi WSW 3.5 mph - N/A   Overcast
6:55 AM 44.6 °F - 44.6 °F 100% 29.99 in 10.0 mi Calm Calm - N/A   Overcast
7:15 AM 44.6 °F 43.1 °F 44.6 °F 100% 29.99 in 10.0 mi ENE 3.5 mph - N/A   Overcast
7:35 AM 44.6 °F 42.2 °F 42.8 °F 93% 29.98 in 10.0 mi North 4.6 mph - N/A   Mostly Cloudy
7:55 AM 44.6 °F 41.4 °F 41.0 °F 87% 29.98 in 10.0 mi NNE 5.8 mph - N/A   Mostly Cloudy
8:15 AM 44.6 °F 42.2 °F 41.0 °F 87% 29.98 in 10.0 mi NE 4.6 mph - N/A   Scattered Clouds
8:35 AM 44.6 °F - 41.0 °F 87% 29.97 in 10.0 mi Calm Calm - N/A   Scattered Clouds
8:55 AM 44.6 °F - 41.0 °F 87% 29.97 in 10.0 mi Calm Calm - N/A   Clear
9:15 AM 44.6 °F - 42.8 °F 93% 29.97 in 10.0 mi Calm Calm - N/A   Mostly Cloudy
9:35 AM 44.6 °F - 42.8 °F 93% 29.97 in 10.0 mi Calm Calm - N/A   Scattered Clouds
9:55 AM 48.2 °F - 42.8 °F 82% 29.97 in 10.0 mi Calm Calm - N/A   Mostly Cloudy
10:15 AM 50.0 °F - 41.0 °F 71% 29.97 in 10.0 mi SSE 6.9 mph - N/A   Overcast
10:35 AM 51.8 °F - 41.0 °F 67% 29.96 in 10.0 mi SSE 8.1 mph - N/A   Overcast
10:55 AM 51.8 °F - 41.0 °F 67% 29.96 in 10.0 mi ESE 9.2 mph - N/A   Overcast
11:15 AM 51.8 °F - 41.0 °F 67% 29.96 in 10.0 mi SE 8.1 mph - N/A Rain Light Rain
11:35 AM 51.8 °F - 41.0 °F 67% 29.96 in 10.0 mi SSE 8.1 mph - N/A   Light Drizzle
11:55 AM 51.8 °F - 42.8 °F 71% 29.96 in 10.0 mi SSE 5.8 mph - N/A   Light Drizzle
12:15 PM 51.8 °F - 42.8 °F 71% 29.96 in 10.0 mi SSE 5.8 mph - N/A Rain Light Rain
12:35 PM 51.8 °F - 44.6 °F 76% 29.96 in 10.0 mi SSE 8.1 mph - N/A Rain Light Rain
12:55 PM 51.8 °F - 44.6 °F 76% 29.96 in 10.0 mi SSE 8.1 mph - N/A   Light Drizzle
1:15 PM 51.8 °F - 44.6 °F 76% 29.96 in 7.0 mi South 6.9 mph - N/A Rain Light Rain
1:35 PM 51.8 °F - 44.6 °F 76% 29.97 in 7.0 mi SW 5.8 mph - 0.01 in Rain Light Rain
1:55 PM 51.8 °F - 46.4 °F 82% 29.97 in 10.0 mi SSW 4.6 mph - 0.02 in Rain Rain
2:15 PM 51.8 °F - 46.4 °F 82% 29.98 in 10.0 mi South 5.8 mph - 0.01 in Rain Light Rain
2:35 PM 51.8 °F - 46.4 °F 82% 29.98 in 7.0 mi South 8.1 mph - 0.02 in Rain Light Rain
2:55 PM 51.8 °F - 46.4 °F 82% 29.98 in 10.0 mi South 5.8 mph - 0.03 in Rain Light Rain
3:15 PM 50.0 °F - 46.4 °F 87% 29.98 in 5.0 mi South 10.4 mph - 0.01 in Rain Rain
3:35 PM 50.0 °F - 46.4 °F 87% 29.98 in 5.0 mi South 12.7 mph 21.9 mph 0.04 in Rain Rain
3:55 PM 50.0 °F - 44.6 °F 82% 29.98 in 10.0 mi South 11.5 mph 20.7 mph 0.05 in Rain Rain
4:15 PM 50.0 °F - 46.4 °F 87% 29.97 in 10.0 mi SSE 12.7 mph - 0.01 in Rain Light Rain
4:35 PM 50.0 °F - 46.4 °F 87% 29.97 in 7.0 mi SSE 11.5 mph - 0.01 in Rain Light Rain
4:55 PM 50.0 °F - 46.4 °F 87% 29.97 in 10.0 mi SSE 11.5 mph 17.3 mph 0.02 in Rain Light Rain
5:15 PM 50.0 °F - 46.4 °F 87% 29.97 in 10.0 mi SSE 10.4 mph - N/A   Drizzle
5:35 PM 50.0 °F - 44.6 °F 82% 29.97 in 10.0 mi South 10.4 mph 17.3 mph N/A Rain Rain
5:55 PM 50.0 °F - 44.6 °F 82% 29.97 in 10.0 mi SSE 10.4 mph - N/A   Light Drizzle
6:15 PM 50.0 °F - 44.6 °F 82% 29.96 in 10.0 mi SSE 10.4 mph - N/A   Drizzle
6:35 PM 50.0 °F - 46.4 °F 87% 29.96 in 10.0 mi SSE 10.4 mph - N/A Rain Light Rain
6:55 PM 50.0 °F - 46.4 °F 87% 29.96 in 7.0 mi SSE 9.2 mph - N/A Rain Rain
7:15 PM 50.0 °F - 46.4 °F 87% 29.96 in 4.0 mi South 6.9 mph - 0.04 in Rain Rain
7:55 PM 50.0 °F - 46.4 °F 87% 29.95 in 7.0 mi SE 6.9 mph - 0.10 in Rain Light Rain
8:15 PM 48.2 °F - 46.4 °F 93% 29.95 in 7.0 mi South 3.5 mph - 0.01 in Rain Light Rain
8:35 PM 48.2 °F - 46.4 °F 93% 29.96 in 3.0 mi South 3.5 mph - 0.03 in Rain Rain
10:15 PM 46.4 °F 45.2 °F 46.4 °F 100% 29.97 in 7.0 mi SSE 3.5 mph - 0.01 in Rain Light Rain
10:35 PM 46.4 °F 44.3 °F 46.4 °F 100% 29.98 in 10.0 mi SE 4.6 mph - 0.01 in   Overcast
10:55 PM 46.4 °F 44.3 °F 46.4 °F 100% 29.98 in 10.0 mi ESE 4.6 mph - 0.01 in   Overcast
11:15 PM 46.4 °F 45.2 °F 46.4 °F 100% 29.98 in 10.0 mi SE 3.5 mph - N/A   Overcast
11:35 PM 46.4 °F 44.3 °F 46.4 °F 100% 29.98 in 10.0 mi SE 4.6 mph - N/A   Overcast
11:55 PM 46.4 °F 44.3 °F 46.4 °F 100% 29.98 in 7.0 mi SE 4.6 mph - N/A   Drizzle